Location: Unspecified
(0.0000°N, 0.0000°E)
Time: 07:35:44
(UTC+00:00)

Vanguard 2 Rocket - Pass Details

Date: 12 October 2022
Orbit: 555 x 3321 km, 32.9° (Epoch: 06 December)

Event Time Altitude Azimuth Distance (km) Brightness Sun altitude
Rises 20:03:06 0° 278° (W) 7,128 12.4 -33.8°
Reaches altitude 10° 20:09:40 10° 291° (WNW) 6,253 11.7 -35.4°
Maximum altitude 20:24:01 23° 336° (NNW) 5,021 10.7 -39.0°
Enters shadow 20:33:38 15° 14° (NNE) 5,156 10.5 -41.4°
Drops below altitude 10° 20:36:35 10° 23° (NNE) 5,386 - -42.1°
Sets 20:41:43 0° 38° (NE) 5,973 - -43.3°
